Location: Evergreen Manor
(41.4083°N, 81.4939°W)
Time: 18:22:05
(UTC+00:00)

Cosmos 2034 Rocket - Pass Details

Date: 11 December 2019
Orbit: 957 x 1001 km, 82.9° (Epoch: 18 January)

Event Time Altitude Azimuth Distance (km) Brightness Sun altitude
Rises 10:22:55 0° 203° (SSW) 3,679 6.9 -25.2°
Reaches altitude 10° 10:25:31 10° 208° (SSW) 2,740 6.2 -24.7°
Enters shadow 10:26:17 14° 211° (SSW) 2,472 5.9 -24.6°
Exits shadow 10:31:53 48° 292° (WNW) 1,281 4.2 -23.5°
Drops below altitude 10° 10:37:43 10° 357° (N) 2,778 6.2 -22.5°
Sets 10:40:23 0° 3° (N) 3,734 7.0 -22.0°
